Regional Weather Roundup
Issued by NWS

Home | Current Version | Previous Version | Graphics & Text | Print | Product List | Glossary On
Versions: 1 2 3 4 5 6 7 8 9 10 11 12 13 14 15 16 17 18 19 20 21 22 23 24 25 26 27 28 29 30 31 32 33 34 35 36 37 38 39 40 41 42 43 44 45 46 47 48 49 50
000
ASUS43 KLOT 020921
RWRIL

ILLINOIS REGIONAL WEATHER ROUNDUP
NATIONAL WEATHER SERVICE CHICAGO/ROMEOVILLE IL
400 AM CDT WED SEP 02 2015

NOTE: "FAIR" INDICATES FEW OR NO CLOUDS BELOW 12,000 FEET WITH NO
SIGNIFICANT WEATHER AND/OR OBSTRUCTIONS TO VISIBILITY.

* THESE STATIONS ARE NOT UNDER NWS QUALITY CONTROL. THEY ALSO MAY NOT
  REPORT WEATHER SUCH AS PRECIPITATION OR FOG.

ILZ001-002-007-009-015-016-024-021000-
NORTHWEST ILLINOIS

CITY           SKY/WX    TMP DP  RH WIND       PRES   REMARKS
MOLINE         CLEAR     72  67  84 CALM      30.02R
STERLING*      CLEAR    N/A N/A N/A CALM      30.01S
SAVANNA*       CLEAR     71  67  89 CALM      30.01S
$$

ILZ003-004-008-010-011-017-018-021000-
NORTH CENTRAL ILLINOIS

CITY           SKY/WX    TMP DP  RH WIND       PRES   REMARKS
ROCKFORD       MOCLDY    70  66  87 S5        30.03S
FREEPORT*      CLEAR     70  67  90 SW6       30.03S
ROCHELLE*      CLEAR     65  65  99 CALM      30.04S FOG
DE KALB*       CLEAR     70  67  92 SW5       30.04S
PERU*          CLEAR     69  66  89 S5        30.04S
$$

ILZ005-006-012>014-019>023-021000-
NORTHEAST ILLINOIS

CITY           SKY/WX    TMP DP  RH WIND       PRES   REMARKS
CHICAGO-OHARE  PTCLDY    73  69  87 W3        30.02S
CHICAGO-MIDWAY PTCLDY    75  68  78 SW6       30.02S
AURORA         PTCLDY    66  64  93 CALM      30.04S FOG
LANSING*       CLEAR     71  67  88 SW5       30.04S
JOLIET*        CLEAR     70  69  96 CALM      30.03S FOG
WAUKEGAN       MOCLDY    75  69  81 VRB5      30.00S
DUPAGE AIRPORT CLEAR     69  66  90 S5        30.03S
KANKAKEE*      CLEAR     67  66  97 CALM      30.06S
WHEELING       PTCLDY    75  68  78 SW7       30.03S
MORRIS*        CLEAR     69  67  93 SW5       30.03S
ROMEOVILLE*    CLEAR     69  67  94 SW7       30.04S
NORTHERLY ISL    N/A     76  67  73 SW7         N/A
$$

LMZ740>746-021000-
SOUTHERN LAKE MICHIGAN

STATION/POSITION SKY/WX   TEMP    WIND        PRES    VSBY  WAVE
                          AIR SEA DIR/SP/G                  HT/PER
                          (F)     (DEG/KT/KT) (MB)    (MI)  (FT/S)
SOUTHERN BUOY              72 70  200/  8/ 10 1015.5R         1/ 4
WILMETTE HARBOR            70 60   30/  8/  8   N/A           1
HARRISON CRIB              76     240/  9/ 13   N/A
BURNHAM HARBOR             76     250/  7/  9   N/A
CALUMET HARBOR             74     210/  5/  7   N/A
BURNS HARBOR               75     210/ 11/ 16 1017.3F
MICHIGAN CITY              74     180/  9/ 11   N/A
MICHIGAN CITY 6N           73 72  220/  6/  6   N/A           1/ 3
ST. JOSEPH                 74 72  240/  8/ 10   N/A           1/ 3
$$

ILZ025>027-034>036-040-047-049-050-058-095>099-021000-
WEST-CENTRAL ILLINOIS

CITY           SKY/WX    TMP DP  RH WIND       PRES   REMARKS
QUINCY         CLEAR     72  68  87 S6        30.04S
GALESBURG*     CLEAR     70  67  91 S3        30.04R
MACOMB*        CLEAR     72  69  91 SW3       30.06R
JACKSONVILLE*  CLEAR     74  71  89 S5        30.06R
PITTSFIELD*    CLEAR     72  69  89 CALM      30.07R
$$

ILZ028>032-037-038-041>044-048-051>054-059>061-021000-
CENTRAL ILLINOIS

CITY           SKY/WX    TMP DP  RH WIND       PRES   REMARKS
PONTIAC        CLEAR     73  71  93 SW5       30.05S
BLOOMINGTON    CLEAR     71  70  97 SW7       30.07S
DECATUR        CLEAR     72  67  84 SW5       30.07S
PEORIA         CLEAR     73  68  84 CALM      30.05R
LACON*         PTCLDY    70  67  90 S3        30.03S
LINCOLN*       CLEAR     69  66  91 CALM      30.05S
SPRINGFIELD    CLEAR     74  69  85 SW5       30.05S
TAYLORVILLE    CLEAR     68  66  94 CALM      30.06S
$$

ILZ033-039-045-046-055>057-062-063-021000-
EAST-CENTRAL ILLINOIS

CITY           SKY/WX    TMP DP  RH WIND       PRES   REMARKS
CHAMPAIGN      CLEAR     69  67  93 SW3       30.08S FOG
RANTOUL*       CLEAR     72  69  93 SW5       30.07S
MATTOON        CLEAR     73  67  81 SW6       30.07R HAZE
PARIS*         CLEAR     65  65  98 CALM      30.09R FOG
$$

ILZ079-100>102-021000-
SOUTHWEST ILLINOIS

CITY           SKY/WX    TMP DP  RH WIND       PRES   REMARKS
ALTON          CLEAR     68  68  98 CALM      30.07R
BELLEVILLE     CLEAR     69  69 100 CALM      30.05F FOG
CAHOKIA*       CLEAR     72  68  87 S3        30.06S
SPARTA*        CLEAR     68  67  97 CALM      30.09S
$$

ILZ064>066-069>071-074>076-080>082-084>086-088>090-092>094-021000-
SOUTH-CENTRAL ILLINOIS

CITY           SKY/WX    TMP DP  RH WIND       PRES   REMARKS
CARBONDALE     CLEAR     67  66  97 CALM      30.08S FOG
CAIRO*         MOCLDY    67  67 100 CALM      30.08S
EFFINGHAM*     CLEAR     66  64  91 CALM      30.09S FOG
MARION           N/A     70  68  94 CALM      30.09S FOG
MT. VERNON     MOCLDY    66  63  88 CALM      30.09R VSB 1/4
CENTRALIA*     CLEAR     68  68  99 S3        30.07S
SALEM*         CLEAR     70  68  93 CALM      30.08R
METROPOLIS*    MOCLDY    67  67 100 CALM      30.09S FOG
$$

ILZ067-068-072-073-078-083-087-091-021000-
SOUTHEAST ILLINOIS

CITY           SKY/WX    TMP DP  RH WIND       PRES   REMARKS
LAWRENCEVILLE  PTCLDY    67  66  97 E3        30.09S FOG
FLORA*         CLEAR     66  65  98 CALM      30.08S FOG
FAIRFIELD*     CLEAR     67  66  99 CALM      30.07S
HARRISBURG*    CLEAR     66  65  97 CALM      30.09R
ROBINSON*      CLEAR     65  64  97 CALM      30.09S FOG
CARMI*         CLEAR     65  65 100 CALM      30.08R FOG
$$

ABBREVIATIONS USED IN REMARKS
   TC - TEMPERATURE IN CELSIUS
  WCI - WIND CHILL INDEX
   HX - HEAT INDEX
  VSB - VISIBILITY
$$




USA.gov is the U.S. government's official web portal to all federal, state and local government web resources and services.